This demonstration page uses our WeatherBlox Daily Observations layout. Learn more.

Left ArrowRight Arrow

44.8408, -93.29828

Hourly Observations for October 7, 2022

Temp ( °F °C ) Dew Point ( °F °C ) Humidity (%) Winds ( mph kmh ) Pressure ( in mb ) Visibility ( mi km ) Precip ( " mm )
12:13 am 00:13 Cloudy with Light Rain 45 7.2 39 3.9 80 80 N 13 20 30.48 1032 5 8 0.01 0.13
12:36 am 00:36 Cloudy 44 6.7 40 4.4 85 85 E 5 7 30.48 1032 10 16 0.01 0.13
12:53 am 00:53 Mostly Cloudy 44 6.7 40 4.4 85 85 NNE 7 11 30.48 1032 10 16 0.01 0.13
1:53 am 01:53 Cloudy with Light Rain 44 6.7 39 3.9 82 82 N 9 15 30.48 1032 10 16 0.01 0.13
2:41 am 02:41 Mostly Cloudy 43 6.1 39 3.9 86 86 N 7 11 30.51 1033 10 16 0.01 0.25
2:53 am 02:53 Cloudy with Light Rain 43 6.1 39 3.9 86 86 NE 7 11 30.50 1033 5 8 0.01 0.25
3:44 am 03:44 Cloudy 43 6.1 38 3.3 82 82 N 7 11 30.51 1033 7 11 0.01 0.13
3:53 am 03:53 Cloudy 43 6.1 38 3.3 82 82 NNE 7 11 30.50 1033 7 11 0.01 0.13
4:19 am 04:19 Cloudy 42 5.6 39 3.9 89 89 NNW 7 11 30.52 1033 9 14 0.00 0.00
4:31 am 04:31 Cloudy 43 6.1 39 3.9 86 86 N 7 11 30.51 1033 10 16 0.00 0.00
4:53 am 04:53 Cloudy 43 6.1 38 3.3 82 82 N 8 13 30.51 1033 10 16 0.00 0.00
5:08 am 05:08 Cloudy 43 6.1 38 3.3 82 82 N 12 19 30.52 1034 10 16 0.00 0.00
5:29 am 05:29 Cloudy 42 5.6 37 2.8 82 82 N 8 13 30.53 1034 10 16 0.00 0.00
5:53 am 05:53 Cloudy 42 5.6 37 2.8 82 82 N 7 11 30.52 1034 10 16 0.00 0.00
6:53 am 06:53 Cloudy 42 5.6 37 2.8 82 82 N 7 11 30.53 1034 10 16 0.00 0.00
7:16 am 07:16 Cloudy 42 5.6 37 2.8 82 82 NNW 9 15 30.55 1034 10 16 0.00 0.00
7:53 am 07:53 Cloudy 42 5.6 37 2.8 82 82 N 8 13 30.55 1035 10 16 0.00 0.00
8:42 am 08:42 Cloudy 41 5 36 2.2 82 82 NNE 10 17 30.58 1035 10 16 0.00 0.00
8:53 am 08:53 Cloudy with Light Rain 41 5 36 2.2 82 82 N 9 15 30.57 1035 9 14 0.01 0.13
9:53 am 09:53 Cloudy with Light Rain 41 5 37 2.8 86 86 N 8 13 30.57 1035 10 16 0.02 0.51
10:05 am 10:05 Cloudy with Light Rain 42 5.6 38 3.3 85 85 NNE 7 11 30.59 1036 10 16 0.01 0.13
10:53 am 10:53 Cloudy 43 6.1 38 3.3 82 82 NNE 9 15 30.57 1035 10 16 0.01 0.13
11:35 am 11:35 Cloudy 43 6.1 38 3.3 82 82 N 8 13 30.57 1035 10 16 0.00 0.00
11:53 am 11:53 Cloudy 43 6.1 38 3.3 82 82 N 7 11 30.56 1035 10 16 0.00 0.00
12:04 pm 12:04 Cloudy 44 6.7 37 2.8 76 76 VRB 7 11 30.57 1035 10 16 0.00 0.00
12:15 pm 12:15 Cloudy 43 6.1 37 2.8 79 79 N 7 11 30.57 1035 10 16 0.00 0.00
12:38 pm 12:38 Cloudy 45 7.2 36 2.2 70 70 N 6 9 30.56 1035 10 16 0.00 0.00
12:53 pm 12:53 Cloudy 45 7.2 36 2.2 70 70 NNW 8 13 30.55 1035 10 16 0.00 0.00
1:00 pm 13:00 Cloudy 45 7.2 35 1.7 68 68 NNW 7 11 30.55 1035 10 16 0.00 0.00
1:53 pm 13:53 Mostly Cloudy 46 7.8 32 0 58 58 NNE 7 11 30.52 1034 10 16 0.00 0.00
2:53 pm 14:53 Cloudy 47 8.3 32 0 56 56 NNW 8 13 30.50 1033 10 16 0.00 0.00
3:53 pm 15:53 Cloudy 48 8.9 30 -1.1 49 49 NNW 10 17 30.48 1032 10 16 0.00 0.00
4:53 pm 16:53 Cloudy 48 8.9 28 -2.2 46 46 NW 10 17 30.47 1032 10 16 0.00 0.00
5:53 pm 17:53 Cloudy 47 8.3 28 -2.2 47 47 NNW 9 15 30.46 1032 10 16 0.00 0.00
6:53 pm 18:53 Mostly Cloudy 44 6.7 28 -2.2 53 53 NW 7 11 30.46 1032 10 16 0.00 0.00
7:53 pm 19:53 Partly Cloudy 42 5.6 26 -3.3 53 53 NW 5 7 30.46 1031 10 16 0.00 0.00
8:53 pm 20:53 Clear 44 6.7 27 -2.8 51 51 Calm 30.45 1031 10 16 0.00 0.00
9:53 pm 21:53 Clear 42 5.6 28 -2.2 57 57 Calm 30.45 1031 10 16 0.00 0.00
10:53 pm 22:53 Clear 40 4.4 29 -1.7 64 64 SW 6 9 30.43 1031 10 16 0.00 0.00
11:53 pm 23:53 Clear 39 3.9 28 -2.2 64 64 WSW 6 9 30.42 1030 10 16 0.00 0.00

Powered by AerisWeather